Location: Santiago
(33.4378°S, 70.6505°W)
Time: 09:03:55
(UTC+00:00)

ISS - Pass Details

Date: 06 February 2026
Orbit: 413 x 428 km, 51.6° (Epoch: 14 February)

Event Time Altitude Azimuth Distance (km) Brightness Sun altitude
Exits shadow 07:56:28 21° 189° (S) 1,040 -1.5 -24.9°
Maximum altitude 07:58:05 31° 143° (SE) 782 -1.8 -24.6°
Drops below altitude 10° 08:01:11 10° 78° (ENE) 1,522 -0.5 -24.2°
Sets 08:03:25 0° 67° (ENE) 2,378 0.4 -23.8°
